Time,TemperatureF,DewpointF,PressureIn,WindDirection,WindDirectionDegrees,WindSpeedMPH,WindSpeedGustMPH,Humidity,HourlyPrecipIn,Conditions,Clouds,dailyrainin,SoftwareType,DateUTC
2013-02-13 00:00:00,44.4,27.9,29.94,East,91,0.0,0.0,52,0.00,CLR,,0.00,WeatherDisplay:10.37,2013-02-13 05:00:00,
2013-02-13 00:01:00,44.4,27.4,29.94,East,90,0.0,0.0,51,0.00,CLR,,0.00,WeatherDisplay:10.37,2013-02-13 05:01:00,
2013-02-13 00:02:00,44.3,28.2,29.94,East,90,0.0,0.0,53,0.00,CLR,,0.00,WeatherDisplay:10.37,2013-02-13 05:02:00,
2013-02-13 00:05:00,44.2,28.6,29.93,East,90,0.0,0.0,54,0.00,CLR,,0.00,WeatherDisplay:10.37,2013-02-13 05:05:00,
2013-02-13 00:11:00,43.9,28.3,29.93,ESE,104,0.0,1.1,54,0.00,CLR,,0.00,WeatherDisplay:10.37,2013-02-13 05:11:00,
2013-02-13 00:16:00,43.7,29.0,29.93,ESE,104,0.0,0.0,56,0.00,CLR,,0.00,WeatherDisplay:10.37,2013-02-13 05:16:00,
2013-02-13 00:21:00,43.5,28.4,29.93,ESE,104,0.0,0.0,55,0.00,SCT,,0.00,WeatherDisplay:10.37,2013-02-13 05:21:00,
2013-02-13 00:26:00,43.7,28.1,29.92,ESE,104,0.0,0.0,54,0.00,SCT,,0.00,WeatherDisplay:10.37,2013-02-13 05:26:00,
2013-02-13 00:32:00,43.7,27.7,29.92,ESE,104,0.0,0.0,53,0.00,SCT,,0.00,WeatherDisplay:10.37,2013-02-13 05:32:00,
2013-02-13 00:37:00,43.9,29.6,29.92,ESE,104,0.0,0.0,57,0.00,SCT,,0.00,WeatherDisplay:10.37,2013-02-13 05:37:00,
2013-02-13 00:42:00,43.5,28.4,29.91,ESE,104,0.0,0.0,55,0.00,SCT,,0.00,WeatherDisplay:10.37,2013-02-13 05:42:00,
2013-02-13 00:47:00,43.5,28.4,29.91,ESE,104,0.0,0.0,55,0.00,SCT,,0.00,WeatherDisplay:10.37,2013-02-13 05:47:00,
2013-02-13 00:52:00,43.7,29.5,29.91,ESE,104,0.0,0.0,57,0.00,SCT,,0.00,WeatherDisplay:10.37,2013-02-13 05:52:00,
2013-02-13 00:57:00,44.0,28.0,29.91,ESE,104,0.0,0.0,53,0.00,SCT,,0.00,WeatherDisplay:10.37,2013-02-13 05:57:00,
2013-02-13 01:02:00,44.0,30.6,29.90,SSE,152,0.0,1.1,59,0.00,SCT,,0.00,WeatherDisplay:10.37,2013-02-13 06:02:00,
2013-02-13 01:07:00,43.5,30.5,29.90,SSE,150,0.0,0.0,60,0.00,SCT,,0.00,WeatherDisplay:10.37,2013-02-13 06:07:00,
2013-02-13 01:12:00,43.2,29.8,29.90,SSE,150,0.0,0.0,59,0.00,SCT,,0.00,WeatherDisplay:10.37,2013-02-13 06:12:00,
2013-02-13 01:17:00,43.2,28.1,29.90,SE,124,0.1,1.1,55,0.00,OVC,,0.00,WeatherDisplay:10.37,2013-02-13 06:17:00,
2013-02-13 01:22:00,43.6,27.1,29.90,ESE,117,0.0,1.1,52,0.00,OVC,,0.00,WeatherDisplay:10.37,2013-02-13 06:22:00,
2013-02-13 01:27:00,43.6,28.5,29.91,ESE,117,0.0,0.0,55,0.00,OVC,,0.00,WeatherDisplay:10.37,2013-02-13 06:27:00,
2013-02-13 01:33:00,43.6,28.0,29.90,ESE,117,0.0,0.0,54,0.00,OVC,,0.00,WeatherDisplay:10.37,2013-02-13 06:33:00,
2013-02-13 01:38:00,43.6,28.5,29.89,ESE,117,0.0,0.0,55,0.00,OVC,,0.00,WeatherDisplay:10.37,2013-02-13 06:38:00,
2013-02-13 01:43:00,43.5,27.9,29.89,ESE,117,0.0,0.0,54,0.00,OVC,,0.00,WeatherDisplay:10.37,2013-02-13 06:43:00,
2013-02-13 01:48:00,43.5,27.5,29.88,ESE,117,0.0,0.0,53,0.00,OVC,,0.00,WeatherDisplay:10.37,2013-02-13 06:48:00,
2013-02-13 01:53:00,43.8,27.3,29.87,ESE,117,0.0,0.0,52,0.00,OVC,,0.00,WeatherDisplay:10.37,2013-02-13 06:53:00,
2013-02-13 01:58:00,43.9,29.2,29.88,ESE,117,0.0,0.0,56,0.00,OVC,,0.00,WeatherDisplay:10.37,2013-02-13 06:58:00,
2013-02-13 02:03:00,43.7,27.7,29.88,ESE,117,0.0,0.0,53,0.00,OVC,,0.00,WeatherDisplay:10.37,2013-02-13 07:03:00,
2013-02-13 02:08:00,43.6,29.4,29.89,ESE,117,0.0,0.0,57,0.00,OVC,,0.00,WeatherDisplay:10.37,2013-02-13 07:08:00,
2013-02-13 02:14:00,43.4,28.7,29.89,ESE,117,0.0,0.0,56,0.00,OVC,,0.00,WeatherDisplay:10.37,2013-02-13 07:14:00,
2013-02-13 02:19:00,43.6,27.6,29.88,ESE,117,0.0,0.0,53,0.00,OVC,,0.00,WeatherDisplay:10.37,2013-02-13 07:19:00,
2013-02-13 02:24:00,44.1,29.4,29.88,ESE,117,0.0,0.0,56,0.00,OVC,,0.00,WeatherDisplay:10.37,2013-02-13 07:24:00,
2013-02-13 02:29:00,43.9,30.1,29.88,ESE,117,0.0,0.0,58,0.00,OVC,,0.00,WeatherDisplay:10.37,2013-02-13 07:29:00,
2013-02-13 02:34:00,43.7,28.2,29.87,ESE,117,0.0,0.0,54,0.00,OVC,,0.00,WeatherDisplay:10.37,2013-02-13 07:34:00,
2013-02-13 02:39:00,43.9,27.9,29.87,ESE,117,0.0,0.0,53,0.00,OVC,,0.00,WeatherDisplay:10.37,2013-02-13 07:39:00,
2013-02-13 02:44:00,43.9,29.2,29.87,SE,133,0.0,0.0,56,0.00,OVC,,0.00,WeatherDisplay:10.37,2013-02-13 07:44:00,
2013-02-13 02:49:00,43.9,28.8,29.87,SSE,148,0.0,0.0,55,0.00,OVC,,0.00,WeatherDisplay:10.37,2013-02-13 07:49:00,
2013-02-13 02:55:00,43.8,32.0,29.87,SSE,149,0.0,0.0,63,0.00,OVC,,0.00,WeatherDisplay:10.37,2013-02-13 07:55:00,
2013-02-13 03:00:00,43.6,32.6,29.87,SSE,149,0.0,0.0,65,0.00,OVC,,0.00,WeatherDisplay:10.37,2013-02-13 08:00:00,
2013-02-13 03:05:00,43.3,31.9,29.88,SSE,149,0.0,0.0,64,0.00,OVC,,0.00,WeatherDisplay:10.37,2013-02-13 08:05:00,
2013-02-13 03:10:00,43.2,31.8,29.87,SSE,148,0.0,0.0,64,0.00,OVC,,0.00,WeatherDisplay:10.37,2013-02-13 08:10:00,
2013-02-13 03:16:00,43.2,30.2,29.86,SSE,148,0.0,0.0,60,0.00,OVC,,0.00,WeatherDisplay:10.37,2013-02-13 08:16:00,
2013-02-13 03:21:00,43.3,30.7,29.86,SE,146,0.0,0.0,61,0.00,OVC,,0.00,WeatherDisplay:10.37,2013-02-13 08:21:00,
2013-02-13 03:26:00,43.4,30.8,29.86,SSE,147,0.0,0.0,61,0.00,OVC,,0.00,WeatherDisplay:10.37,2013-02-13 08:26:00,
2013-02-13 03:32:00,43.4,30.4,29.85,SE,146,0.0,0.0,60,0.00,OVC,,0.00,WeatherDisplay:10.37,2013-02-13 08:32:00,
2013-02-13 03:37:00,43.3,29.9,29.84,SSE,147,0.0,0.0,59,0.00,OVC,,0.00,WeatherDisplay:10.37,2013-02-13 08:37:00,
2013-02-13 03:42:00,43.3,30.3,29.84,SSE,148,0.0,0.0,60,0.00,OVC,,0.00,WeatherDisplay:10.37,2013-02-13 08:42:00,
2013-02-13 03:47:00,43.2,31.1,29.84,SSE,148,0.0,0.0,62,0.00,OVC,,0.00,WeatherDisplay:10.37,2013-02-13 08:47:00,
2013-02-13 03:52:00,43.1,32.5,29.84,SSE,148,0.0,0.0,66,0.00,OVC,,0.00,WeatherDisplay:10.37,2013-02-13 08:52:00,
2013-02-13 03:57:00,42.8,32.6,29.83,SSE,148,0.0,0.0,67,0.00,OVC,,0.00,WeatherDisplay:10.37,2013-02-13 08:57:00,
2013-02-13 04:02:00,42.7,31.4,29.82,SSE,148,0.0,0.0,64,0.00,OVC,,0.00,WeatherDisplay:10.37,2013-02-13 09:02:00,
2013-02-13 04:07:00,42.6,32.4,29.83,SSE,148,0.0,0.0,67,0.00,OVC,,0.00,WeatherDisplay:10.37,2013-02-13 09:07:00,
2013-02-13 04:12:00,42.5,32.7,29.83,SSE,147,0.0,0.0,68,0.00,OVC,,0.00,WeatherDisplay:10.37,2013-02-13 09:12:00,
2013-02-13 04:17:00,42.4,31.8,29.83,SE,146,0.0,0.0,66,0.00,OVC,,0.00,WeatherDisplay:10.37,2013-02-13 09:17:00,
2013-02-13 04:22:00,42.5,30.8,29.83,SSE,147,0.0,0.0,63,0.00,OVC,,0.00,WeatherDisplay:10.37,2013-02-13 09:22:00,
2013-02-13 04:27:00,42.6,31.3,29.83,SSE,147,0.0,0.0,64,0.00,OVC,,0.00,WeatherDisplay:10.37,2013-02-13 09:27:00,
2013-02-13 04:32:00,42.6,32.0,29.83,SSE,148,0.0,0.0,66,0.00,OVC,,0.00,WeatherDisplay:10.37,2013-02-13 09:32:00,
2013-02-13 04:37:00,42.6,32.4,29.82,SSE,148,0.0,0.0,67,0.00,OVC,,0.00,WeatherDisplay:10.37,2013-02-13 09:37:00,
2013-02-13 04:42:00,42.5,31.9,29.82,SSE,148,0.0,0.0,66,0.00,OVC,,0.00,WeatherDisplay:10.37,2013-02-13 09:42:00,
2013-02-13 04:47:00,42.5,32.3,29.82,SSE,148,0.0,0.0,67,0.00,OVC,,0.00,WeatherDisplay:10.37,2013-02-13 09:47:00,
2013-02-13 04:52:00,42.5,31.6,29.82,SSE,148,0.0,0.0,65,0.00,OVC,,0.00,WeatherDisplay:10.37,2013-02-13 09:52:00,
2013-02-13 04:57:00,42.5,31.2,29.81,SSE,148,0.0,0.0,64,0.00,OVC,,0.00,WeatherDisplay:10.37,2013-02-13 09:57:00,
2013-02-13 05:02:00,42.6,30.1,29.81,SSE,147,0.0,0.0,61,0.00,OVC,,0.00,WeatherDisplay:10.37,2013-02-13 10:02:00,
2013-02-13 05:07:00,42.7,29.8,29.80,SSE,148,0.0,0.0,60,0.00,OVC,,0.00,WeatherDisplay:10.37,2013-02-13 10:07:00,
2013-02-13 05:12:00,42.8,31.5,29.81,SSE,148,0.0,0.0,64,0.00,OVC,,0.00,WeatherDisplay:10.37,2013-02-13 10:12:00,
2013-02-13 05:17:00,42.8,29.9,29.80,SE,146,0.0,0.0,60,0.00,OVC,,0.00,WeatherDisplay:10.37,2013-02-13 10:17:00,
2013-02-13 05:22:00,42.9,30.0,29.80,SSE,148,0.0,0.0,60,0.00,OVC,,0.00,WeatherDisplay:10.37,2013-02-13 10:22:00,
2013-02-13 05:27:00,43.0,31.6,29.81,SSE,147,0.0,0.0,64,0.00,OVC,,0.00,WeatherDisplay:10.37,2013-02-13 10:27:00,
2013-02-13 05:32:00,42.9,31.2,29.81,SSE,147,0.0,0.0,63,0.00,OVC,,0.00,WeatherDisplay:10.37,2013-02-13 10:32:00,
2013-02-13 05:37:00,42.7,31.0,29.80,SE,146,0.0,0.0,63,0.00,OVC,,0.00,WeatherDisplay:10.37,2013-02-13 10:37:00,
2013-02-13 05:42:00,42.8,30.7,29.81,SSE,147,0.0,0.0,62,0.00,OVC,,0.00,WeatherDisplay:10.37,2013-02-13 10:42:00,
2013-02-13 05:47:00,42.8,30.7,29.81,SE,146,0.0,0.0,62,0.00,OVC,,0.00,WeatherDisplay:10.37,2013-02-13 10:47:00,
2013-02-13 05:52:00,42.8,30.7,29.81,SSE,147,0.0,0.0,62,0.00,OVC,,0.00,WeatherDisplay:10.37,2013-02-13 10:52:00,
2013-02-13 05:57:00,42.9,32.3,29.81,SSE,147,0.0,0.0,66,0.00,OVC,,0.00,WeatherDisplay:10.37,2013-02-13 10:57:00,
2013-02-13 06:02:00,42.9,32.3,29.81,SSE,148,0.0,0.0,66,0.00,OVC,,0.00,WeatherDisplay:10.37,2013-02-13 11:02:00,
2013-02-13 06:07:00,42.9,31.9,29.80,SSE,148,0.0,0.0,65,0.00,OVC,,0.00,WeatherDisplay:10.37,2013-02-13 11:07:00,
2013-02-13 06:12:00,42.7,31.7,29.80,SSE,150,0.0,0.0,65,0.00,OVC,,0.00,WeatherDisplay:10.37,2013-02-13 11:12:00,
2013-02-13 06:17:00,42.7,31.0,29.81,SSE,150,0.0,0.0,63,0.00,OVC,,0.00,WeatherDisplay:10.37,2013-02-13 11:17:00,
2013-02-13 06:22:00,42.7,31.0,29.80,SSE,150,0.0,0.0,63,0.00,OVC,,0.00,WeatherDisplay:10.37,2013-02-13 11:22:00,
2013-02-13 06:27:00,42.7,31.0,29.81,SSE,151,0.0,0.0,63,0.00,OVC,,0.00,WeatherDisplay:10.37,2013-02-13 11:27:00,
2013-02-13 06:32:00,42.7,31.4,29.81,South,179,0.0,0.0,64,0.00,OVC,,0.00,WeatherDisplay:10.37,2013-02-13 11:32:00,
2013-02-13 06:37:00,42.7,32.1,29.81,South,187,0.0,0.0,66,0.00,OVC,,0.00,WeatherDisplay:10.37,2013-02-13 11:37:00,
2013-02-13 06:42:00,42.7,31.0,29.80,SE,143,0.1,1.1,63,0.00,OVC,,0.00,WeatherDisplay:10.37,2013-02-13 11:42:00,
2013-02-13 06:47:00,42.9,30.4,29.80,SE,144,0.0,0.0,61,0.00,OVC,,0.00,WeatherDisplay:10.37,2013-02-13 11:47:00,
2013-02-13 06:52:00,43.0,31.6,29.80,SE,143,0.0,0.0,64,0.00,OVC,,0.00,WeatherDisplay:10.37,2013-02-13 11:52:00,
2013-02-13 06:57:00,42.7,33.2,29.80,SE,144,0.0,0.0,69,0.00,OVC,,0.00,WeatherDisplay:10.37,2013-02-13 11:57:00,
2013-02-13 07:02:00,42.0,33.6,29.80,SE,143,0.0,0.0,72,0.00,OVC,,0.00,WeatherDisplay:10.37,2013-02-13 12:02:00,
2013-02-13 07:07:00,41.4,34.1,29.80,SE,143,0.0,1.1,75,0.00,OVC,,0.00,WeatherDisplay:10.37,2013-02-13 12:07:00,
2013-02-13 07:12:00,41.1,34.8,29.80,SE,137,0.0,0.0,78,0.01,RA,,0.01,WeatherDisplay:10.37,2013-02-13 12:12:00,
2013-02-13 07:17:00,40.8,34.8,29.79,SE,137,0.0,0.0,79,0.01,RA,,0.01,WeatherDisplay:10.37,2013-02-13 12:17:00,
2013-02-13 07:22:00,40.5,35.1,29.79,SE,136,0.0,0.0,81,0.01,RA,,0.01,WeatherDisplay:10.37,2013-02-13 12:22:00,
2013-02-13 07:27:00,40.3,35.2,29.80,SE,137,0.0,0.0,82,0.01,RA,,0.01,WeatherDisplay:10.37,2013-02-13 12:27:00,
2013-02-13 07:32:00,40.2,36.1,29.81,SE,136,0.0,0.0,85,0.01,RA,,0.01,WeatherDisplay:10.37,2013-02-13 12:32:00,
2013-02-13 07:37:00,40.1,36.2,29.80,SE,136,0.0,0.0,86,0.01,RA,,0.01,WeatherDisplay:10.37,2013-02-13 12:37:00,
2013-02-13 07:42:00,40.1,35.7,29.79,ESE,113,0.2,1.1,84,0.01,OVC,,0.01,WeatherDisplay:10.37,2013-02-13 12:42:00,
2013-02-13 07:47:00,40.3,36.1,29.79,South,171,0.0,0.0,85,0.01,OVC,,0.01,WeatherDisplay:10.37,2013-02-13 12:47:00,
2013-02-13 07:52:00,40.3,36.7,29.79,SW,215,0.0,0.0,87,0.01,OVC,,0.01,WeatherDisplay:10.37,2013-02-13 12:52:00,
2013-02-13 07:57:00,40.3,36.4,29.80,WSW,252,0.1,1.1,86,0.01,OVC,,0.01,WeatherDisplay:10.37,2013-02-13 12:57:00,
2013-02-13 08:02:00,40.4,36.5,29.81,SW,221,0.0,0.0,86,0.01,OVC,,0.01,WeatherDisplay:10.37,2013-02-13 13:02:00,
2013-02-13 08:07:00,40.6,36.7,29.81,SSW,207,0.0,0.0,86,0.01,BKN,,0.01,WeatherDisplay:10.37,2013-02-13 13:07:00,
2013-02-13 08:12:00,40.7,36.8,29.81,ESE,114,0.0,0.0,86,0.00,BKN,,0.01,WeatherDisplay:10.37,2013-02-13 13:12:00,
2013-02-13 08:17:00,40.8,36.6,29.80,SSW,204,0.1,2.3,85,0.00,BKN,,0.01,WeatherDisplay:10.37,2013-02-13 13:17:00,
2013-02-13 08:22:00,40.9,37.3,29.80,SSW,211,0.2,1.1,87,0.00,BKN,,0.01,WeatherDisplay:10.37,2013-02-13 13:22:00,
2013-02-13 08:27:00,41.0,37.4,29.80,South,176,0.0,0.0,87,0.00,BKN,,0.01,WeatherDisplay:10.37,2013-02-13 13:27:00,
2013-02-13 08:32:00,41.2,37.9,29.79,South,176,0.0,0.0,88,0.00,BKN,,0.01,WeatherDisplay:10.37,2013-02-13 13:32:00,
2013-02-13 08:37:00,41.3,38.0,29.79,SSE,155,0.0,0.0,88,0.00,BKN,,0.01,WeatherDisplay:10.37,2013-02-13 13:37:00,
2013-02-13 08:42:00,41.6,38.3,29.80,WSW,238,0.8,2.3,88,0.00,BKN,,0.01,WeatherDisplay:10.37,2013-02-13 13:42:00,
2013-02-13 08:47:00,41.7,38.4,29.80,South,172,0.1,1.1,88,0.00,BKN,,0.01,WeatherDisplay:10.37,2013-02-13 13:47:00,
2013-02-13 08:52:00,41.9,38.3,29.80,NE,42,0.0,1.0,87,0.00,BKN,,0.01,WeatherDisplay:10.37,2013-02-13 13:52:00,
2013-02-13 08:57:00,42.0,38.7,29.80,SW,222,0.1,1.1,88,0.00,BKN,,0.01,WeatherDisplay:10.37,2013-02-13 13:57:00,
2013-02-13 09:02:00,42.1,38.8,29.80,West,265,0.0,0.0,88,0.00,BKN,,0.01,WeatherDisplay:10.37,2013-02-13 14:02:00,
2013-02-13 09:07:00,42.2,38.9,29.80,West,266,0.0,0.0,88,0.00,OVC,,0.01,WeatherDisplay:10.37,2013-02-13 14:07:00,
2013-02-13 09:12:00,42.3,39.0,29.80,West,266,0.0,0.0,88,0.00,OVC,,0.01,WeatherDisplay:10.37,2013-02-13 14:12:00,
2013-02-13 09:18:00,42.5,39.2,29.80,West,266,0.0,0.0,88,0.00,OVC,,0.01,WeatherDisplay:10.37,2013-02-13 14:18:00,
2013-02-13 09:23:00,42.6,38.7,29.79,West,265,0.0,1.1,86,0.00,OVC,,0.01,WeatherDisplay:10.37,2013-02-13 14:23:00,
2013-02-13 09:28:00,42.7,39.4,29.79,West,265,0.0,0.0,88,0.00,OVC,,0.01,WeatherDisplay:10.37,2013-02-13 14:28:00,
2013-02-13 09:33:00,42.9,39.6,29.79,West,265,0.0,0.0,88,0.00,OVC,,0.01,WeatherDisplay:10.37,2013-02-13 14:33:00,
2013-02-13 09:38:00,43.0,39.7,29.78,West,265,0.0,0.0,88,0.00,OVC,,0.01,WeatherDisplay:10.37,2013-02-13 14:38:00,
2013-02-13 09:43:00,43.1,39.8,29.79,West,266,0.0,0.0,88,0.00,OVC,,0.01,WeatherDisplay:10.37,2013-02-13 14:43:00,
2013-02-13 09:48:00,43.1,39.8,29.78,NNE,18,0.1,1.1,88,0.00,OVC,,0.02,WeatherDisplay:10.37,2013-02-13 14:48:00,
2013-02-13 09:53:00,42.9,39.6,29.78,NE,44,0.4,1.1,88,0.01,RA,,0.02,WeatherDisplay:10.37,2013-02-13 14:53:00,
2013-02-13 09:59:00,42.8,39.7,29.77,NE,40,0.0,0.0,89,0.01,RA,,0.03,WeatherDisplay:10.37,2013-02-13 14:59:00,
2013-02-13 10:04:00,42.7,40.3,29.77,NE,53,0.0,0.0,91,0.00,RA,,0.03,WeatherDisplay:10.37,2013-02-13 15:04:00,
2013-02-13 10:09:00,42.7,40.3,29.77,NE,53,0.0,0.0,91,0.00,RA,,0.03,WeatherDisplay:10.37,2013-02-13 15:09:00,
2013-02-13 10:14:00,42.7,40.5,29.77,NE,53,0.0,0.0,92,0.01,RA,,0.04,WeatherDisplay:10.37,2013-02-13 15:14:00,
2013-02-13 10:19:00,42.6,40.5,29.76,NE,54,0.0,0.0,92,0.01,RA,,0.04,WeatherDisplay:10.37,2013-02-13 15:19:00,
2013-02-13 10:24:00,42.5,40.3,29.76,NE,56,0.0,0.0,92,0.00,RA,,0.04,WeatherDisplay:10.37,2013-02-13 15:24:00,
2013-02-13 10:29:00,42.6,40.7,29.77,ENE,57,0.0,0.0,93,0.00,RA,,0.04,WeatherDisplay:10.37,2013-02-13 15:29:00,
2013-02-13 10:34:00,42.6,40.7,29.76,NE,51,0.0,0.0,93,0.00,RA,,0.04,WeatherDisplay:10.37,2013-02-13 15:34:00,
2013-02-13 10:39:00,42.5,40.6,29.77,NE,52,0.0,0.0,93,0.00,RA,,0.04,WeatherDisplay:10.37,2013-02-13 15:39:00,
2013-02-13 10:44:00,42.5,40.6,29.76,ENE,78,0.0,0.0,93,0.00,OVC,,0.04,WeatherDisplay:10.37,2013-02-13 15:44:00,
2013-02-13 10:49:00,42.5,40.9,29.76,West,259,0.0,0.0,94,0.00,-RA,,0.04,WeatherDisplay:10.37,2013-02-13 15:49:00,
2013-02-13 10:54:00,42.6,41.0,29.76,West,277,0.0,0.0,94,0.00,-RA,,0.04,WeatherDisplay:10.37,2013-02-13 15:54:00,
2013-02-13 10:59:00,42.5,40.9,29.76,WSW,252,0.0,0.0,94,0.00,-RA,,0.04,WeatherDisplay:10.37,2013-02-13 15:59:00,
2013-02-13 11:04:00,42.5,40.9,29.75,ESE,107,0.0,0.0,94,0.00,-RA,,0.04,WeatherDisplay:10.37,2013-02-13 16:04:00,
2013-02-13 11:09:00,42.5,40.9,29.75,SE,129,0.0,0.0,94,0.00,-RA,,0.04,WeatherDisplay:10.37,2013-02-13 16:09:00,
2013-02-13 11:14:00,42.6,41.0,29.75,East,99,0.0,0.0,94,0.00,-RA,,0.04,WeatherDisplay:10.37,2013-02-13 16:14:00,
2013-02-13 11:19:00,42.6,41.0,29.75,ENE,77,0.0,0.0,94,0.00,-RA,,0.04,WeatherDisplay:10.37,2013-02-13 16:19:00,
2013-02-13 11:24:00,42.5,40.6,29.75,East,95,0.0,1.1,93,0.00,-RA,,0.04,WeatherDisplay:10.37,2013-02-13 16:24:00,
2013-02-13 11:29:00,42.5,40.6,29.75,East,85,0.3,2.3,93,0.00,-RA,,0.04,WeatherDisplay:10.37,2013-02-13 16:29:00,
2013-02-13 11:34:00,42.5,40.6,29.74,East,82,0.1,1.1,93,0.00,OVC,,0.04,WeatherDisplay:10.37,2013-02-13 16:34:00,
2013-02-13 11:40:00,42.5,40.6,29.73,East,101,0.1,1.0,93,0.00,OVC,,0.04,WeatherDisplay:10.37,2013-02-13 16:40:00,
2013-02-13 11:45:00,42.6,41.0,29.73,ESE,114,0.2,2.3,94,0.00,OVC,,0.04,WeatherDisplay:10.37,2013-02-13 16:45:00,
2013-02-13 11:50:00,42.6,41.0,29.72,SE,134,0.3,1.1,94,0.00,OVC,,0.04,WeatherDisplay:10.37,2013-02-13 16:50:00,
2013-02-13 11:55:00,42.5,40.6,29.73,East,85,0.3,1.1,93,0.00,OVC,,0.04,WeatherDisplay:10.37,2013-02-13 16:55:00,
2013-02-13 12:01:00,42.7,41.1,29.73,NNW,332,0.0,0.0,94,0.00,OVC,,0.04,WeatherDisplay:10.37,2013-02-13 17:01:00,
2013-02-13 12:06:00,42.7,41.1,29.73,East,82,0.9,2.0,94,0.00,OVC,,0.04,WeatherDisplay:10.37,2013-02-13 17:06:00,
2013-02-13 12:11:00,42.6,41.0,29.72,ENE,72,0.0,1.1,94,0.00,OVC,,0.04,WeatherDisplay:10.37,2013-02-13 17:11:00,
2013-02-13 12:16:00,42.6,41.0,29.71,East,82,0.1,1.1,94,0.00,OVC,,0.04,WeatherDisplay:10.37,2013-02-13 17:16:00,
2013-02-13 12:22:00,42.6,41.0,29.71,NE,37,0.0,0.0,94,0.00,OVC,,0.04,WeatherDisplay:10.37,2013-02-13 17:22:00,
2013-02-13 12:27:00,42.6,41.0,29.70,ESE,111,0.0,1.1,94,0.00,OVC,,0.04,WeatherDisplay:10.37,2013-02-13 17:27:00,
2013-02-13 12:32:00,42.6,41.0,29.70,West,261,0.0,0.0,94,0.00,OVC,,0.04,WeatherDisplay:10.37,2013-02-13 17:32:00,
2013-02-13 12:37:00,42.6,41.0,29.69,East,84,1.8,3.5,94,0.00,OVC,,0.04,WeatherDisplay:10.37,2013-02-13 17:37:00,
2013-02-13 12:42:00,42.6,41.0,29.70,SSW,201,0.7,3.0,94,0.00,OVC,,0.04,WeatherDisplay:10.37,2013-02-13 17:42:00,
2013-02-13 12:47:00,42.7,40.8,29.69,ENE,78,0.2,1.1,93,0.00,OVC,,0.04,WeatherDisplay:10.37,2013-02-13 17:47:00,
2013-02-13 12:52:00,42.7,40.8,29.68,West,260,0.0,1.1,93,0.00,OVC,,0.04,WeatherDisplay:10.37,2013-02-13 17:52:00,
2013-02-13 12:57:00,42.7,40.8,29.68,SE,146,0.2,1.1,93,0.00,OVC,,0.04,WeatherDisplay:10.37,2013-02-13 17:57:00,
2013-02-13 13:02:00,42.7,40.8,29.68,ESE,120,1.2,2.3,93,0.00,OVC,,0.04,WeatherDisplay:10.37,2013-02-13 18:02:00,
2013-02-13 13:07:00,42.8,40.9,29.66,ESE,106,0.0,1.1,93,0.00,CLR,,0.04,WeatherDisplay:10.37,2013-02-13 18:07:00,
2013-02-13 13:12:00,42.9,41.0,29.67,North,359,0.1,1.1,93,0.00,CLR,,0.04,WeatherDisplay:10.37,2013-02-13 18:12:00,
2013-02-13 13:17:00,42.9,41.0,29.66,NNE,25,0.0,0.0,93,0.00,OVC,,0.04,WeatherDisplay:10.37,2013-02-13 18:17:00,
2013-02-13 13:22:00,43.0,41.1,29.66,ESE,120,0.0,1.1,93,0.00,OVC,,0.04,WeatherDisplay:10.37,2013-02-13 18:22:00,
2013-02-13 13:27:00,43.0,40.8,29.66,ESE,120,0.5,1.1,92,0.00,OVC,,0.04,WeatherDisplay:10.37,2013-02-13 18:27:00,
2013-02-13 13:32:00,43.0,41.1,29.66,ESE,120,0.0,0.0,93,0.00,OVC,,0.04,WeatherDisplay:10.37,2013-02-13 18:32:00,
2013-02-13 13:37:00,43.0,41.1,29.65,ESE,107,0.0,0.0,93,0.00,OVC,,0.04,WeatherDisplay:10.37,2013-02-13 18:37:00,
2013-02-13 13:42:00,42.9,41.0,29.65,ESE,102,0.0,1.1,93,0.00,OVC,,0.04,WeatherDisplay:10.37,2013-02-13 18:42:00,
2013-02-13 13:47:00,42.9,41.0,29.64,NNW,332,0.0,1.1,93,0.00,OVC,,0.04,WeatherDisplay:10.37,2013-02-13 18:47:00,
2013-02-13 13:52:00,42.9,41.3,29.64,NE,37,0.6,2.3,94,0.00,OVC,,0.04,WeatherDisplay:10.37,2013-02-13 18:52:00,
2013-02-13 13:57:00,42.9,41.0,29.64,ENE,58,0.0,1.1,93,0.00,OVC,,0.04,WeatherDisplay:10.37,2013-02-13 18:57:00,
2013-02-13 14:02:00,42.9,41.3,29.64,SE,142,0.0,1.1,94,0.00,-RA,,0.04,WeatherDisplay:10.37,2013-02-13 19:02:00,
2013-02-13 14:07:00,42.9,41.3,29.64,ENE,75,0.0,0.0,94,0.00,-RA,,0.04,WeatherDisplay:10.37,2013-02-13 19:07:00,
2013-02-13 14:12:00,43.0,41.4,29.64,East,79,0.0,1.1,94,0.00,-RA,,0.04,WeatherDisplay:10.37,2013-02-13 19:12:00,
2013-02-13 14:17:00,42.9,41.3,29.63,East,87,0.1,1.1,94,0.00,-RA,,0.04,WeatherDisplay:10.37,2013-02-13 19:17:00,
2013-02-13 14:22:00,42.8,41.5,29.63,ESE,113,0.0,0.0,95,0.00,-RA,,0.04,WeatherDisplay:10.37,2013-02-13 19:22:00,
2013-02-13 14:27:00,42.9,41.6,29.62,ENE,63,0.0,1.1,95,0.00,-RA,,0.04,WeatherDisplay:10.37,2013-02-13 19:27:00,
2013-02-13 14:32:00,42.9,41.6,29.62,SE,124,0.0,1.1,95,0.00,-RA,,0.04,WeatherDisplay:10.37,2013-02-13 19:32:00,
2013-02-13 14:37:00,42.9,41.6,29.63,WNW,284,0.0,1.1,95,0.00,-RA,,0.04,WeatherDisplay:10.37,2013-02-13 19:37:00,
2013-02-13 14:42:00,42.8,41.2,29.63,SSE,152,0.1,1.1,94,0.00,-RA,,0.04,WeatherDisplay:10.37,2013-02-13 19:42:00,
2013-02-13 14:47:00,42.8,41.5,29.62,SSE,152,0.6,2.3,95,0.01,-RA,,0.05,WeatherDisplay:10.37,2013-02-13 19:47:00,
2013-02-13 14:52:00,42.8,41.5,29.62,NE,43,0.0,1.1,95,0.01,-RA,,0.05,WeatherDisplay:10.37,2013-02-13 19:52:00,
2013-02-13 14:57:00,42.8,41.5,29.62,SE,141,0.1,1.1,95,0.01,-RA,,0.05,WeatherDisplay:10.37,2013-02-13 19:57:00,
2013-02-13 15:02:00,42.9,41.6,29.62,NNE,32,0.0,1.1,95,0.01,-RA,,0.05,WeatherDisplay:10.37,2013-02-13 20:02:00,
2013-02-13 15:07:00,42.9,41.6,29.62,ESE,115,0.2,1.1,95,0.01,-RA,,0.05,WeatherDisplay:10.37,2013-02-13 20:07:00,
2013-02-13 15:12:00,43.0,41.7,29.63,WSW,242,0.1,1.1,95,0.01,-RA,,0.05,WeatherDisplay:10.37,2013-02-13 20:12:00,
2013-02-13 15:17:00,43.0,41.7,29.64,WSW,242,0.1,1.1,95,0.01,-RA,,0.05,WeatherDisplay:10.37,2013-02-13 20:17:00,
2013-02-13 15:23:00,43.0,41.7,29.63,SE,134,0.0,0.0,95,0.01,-RA,,0.05,WeatherDisplay:10.37,2013-02-13 20:23:00,
2013-02-13 15:28:00,42.9,41.6,29.63,ESE,112,0.3,1.1,95,0.01,-RA,,0.05,WeatherDisplay:10.37,2013-02-13 20:28:00,
2013-02-13 15:33:00,42.9,41.6,29.63,East,100,0.0,0.0,95,0.01,-RA,,0.05,WeatherDisplay:10.37,2013-02-13 20:33:00,
2013-02-13 15:38:00,43.1,41.8,29.63,East,98,0.0,1.1,95,0.01,-RA,,0.05,WeatherDisplay:10.37,2013-02-13 20:38:00,
2013-02-13 15:43:00,43.3,42.0,29.63,South,172,0.0,0.0,95,0.01,-RA,,0.05,WeatherDisplay:10.37,2013-02-13 20:43:00,
2013-02-13 15:48:00,43.3,42.0,29.63,SSE,164,0.0,0.0,95,0.00,-RA,,0.05,WeatherDisplay:10.37,2013-02-13 20:48:00,
2013-02-13 15:53:00,43.5,42.2,29.63,SE,128,0.0,0.0,95,0.00,-RA,,0.05,WeatherDisplay:10.37,2013-02-13 20:53:00,
2013-02-13 15:58:00,43.5,42.2,29.63,ESE,121,0.1,1.1,95,0.00,-RA,,0.05,WeatherDisplay:10.37,2013-02-13 20:58:00,
2013-02-13 16:03:00,43.5,42.2,29.63,SE,146,0.0,0.0,95,0.00,-RA,,0.05,WeatherDisplay:10.37,2013-02-13 21:03:00,
2013-02-13 16:08:00,43.6,42.3,29.62,SSE,166,0.0,0.0,95,0.00,-RA,,0.05,WeatherDisplay:10.37,2013-02-13 21:08:00,
2013-02-13 16:13:00,43.7,42.4,29.62,SSE,166,0.0,0.0,95,0.00,-RA,,0.05,WeatherDisplay:10.37,2013-02-13 21:13:00,
2013-02-13 16:18:00,43.7,42.4,29.62,SSE,166,0.0,0.0,95,0.00,OVC,,0.05,WeatherDisplay:10.37,2013-02-13 21:18:00,
2013-02-13 16:23:00,43.7,42.4,29.62,SSE,166,0.0,0.0,95,0.00,OVC,,0.05,WeatherDisplay:10.37,2013-02-13 21:23:00,
2013-02-13 16:28:00,43.6,42.0,29.61,ESE,104,0.2,1.1,94,0.00,OVC,,0.05,WeatherDisplay:10.37,2013-02-13 21:28:00,
2013-02-13 16:33:00,43.4,41.8,29.61,East,96,0.4,1.1,94,0.00,OVC,,0.05,WeatherDisplay:10.37,2013-02-13 21:33:00,
2013-02-13 16:38:00,43.5,41.9,29.61,East,98,0.0,0.0,94,0.00,OVC,,0.05,WeatherDisplay:10.37,2013-02-13 21:38:00,
2013-02-13 16:44:00,43.5,42.2,29.62,SE,125,0.0,0.0,95,0.00,OVC,,0.05,WeatherDisplay:10.37,2013-02-13 21:44:00,
2013-02-13 16:49:00,43.5,41.9,29.62,SSW,208,0.0,0.0,94,0.00,OVC,,0.05,WeatherDisplay:10.37,2013-02-13 21:49:00,
2013-02-13 16:54:00,43.5,41.8,29.62,WSW,256,0.0,0.0,94,0.00,OVC,,0.05,WeatherDisplay:10.37,2013-02-13 21:54:00,
2013-02-13 16:59:00,43.3,41.7,29.62,West,276,0.0,0.0,94,0.01,RA,,0.06,WeatherDisplay:10.37,2013-02-13 21:59:00,
2013-02-13 17:04:00,43.3,42.0,29.62,West,261,0.0,0.0,95,0.01,-RA,,0.06,WeatherDisplay:10.37,2013-02-13 22:04:00,
2013-02-13 17:09:00,43.3,42.0,29.62,SW,229,0.0,0.0,95,0.00,-RA,,0.06,WeatherDisplay:10.37,2013-02-13 22:09:00,
2013-02-13 17:14:00,43.3,42.0,29.63,SW,229,0.0,0.0,95,0.00,-RA,,0.06,WeatherDisplay:10.37,2013-02-13 22:14:00,
2013-02-13 17:19:00,43.3,41.9,29.63,SSW,193,0.0,0.0,95,0.00,-RA,,0.06,WeatherDisplay:10.37,2013-02-13 22:19:00,
2013-02-13 17:24:00,43.2,41.9,29.63,ESE,108,0.0,0.0,95,0.00,-RA,,0.06,WeatherDisplay:10.37,2013-02-13 22:24:00,
2013-02-13 17:29:00,43.2,41.9,29.63,ESE,109,0.0,0.0,95,0.00,-RA,,0.06,WeatherDisplay:10.37,2013-02-13 22:29:00,
2013-02-13 17:34:00,43.2,41.9,29.63,ESE,113,0.0,0.0,95,0.01,-RA,,0.06,WeatherDisplay:10.37,2013-02-13 22:34:00,
2013-02-13 17:39:00,43.2,41.9,29.64,SW,233,0.0,1.1,95,0.01,-RA,,0.06,WeatherDisplay:10.37,2013-02-13 22:39:00,
2013-02-13 17:45:00,43.1,41.8,29.63,WSW,252,0.0,1.1,95,0.01,-RA,,0.06,WeatherDisplay:10.37,2013-02-13 22:45:00,
2013-02-13 17:50:00,43.1,41.8,29.64,WSW,253,0.0,0.0,95,0.01,-RA,,0.06,WeatherDisplay:10.37,2013-02-13 22:50:00,
2013-02-13 17:55:00,43.0,41.7,29.64,WNW,298,0.0,1.1,95,0.00,-RA,,0.06,WeatherDisplay:10.37,2013-02-13 22:55:00,
2013-02-13 18:00:00,43.0,41.9,29.64,WNW,297,0.1,1.1,96,0.00,-RA,,0.06,WeatherDisplay:10.37,2013-02-13 23:00:00,
2013-02-13 18:05:00,43.0,41.9,29.64,WNW,298,0.0,1.1,96,0.00,-RA,,0.06,WeatherDisplay:10.37,2013-02-13 23:05:00,
2013-02-13 18:10:00,43.0,41.9,29.65,NW,320,0.6,1.1,96,0.00,-RA,,0.06,WeatherDisplay:10.37,2013-02-13 23:10:00,
2013-02-13 18:15:00,43.0,41.9,29.66,NNE,23,1.7,2.3,96,0.01,-RA,,0.07,WeatherDisplay:10.37,2013-02-13 23:15:00,
2013-02-13 18:20:00,43.1,42.0,29.66,West,263,1.1,3.5,96,0.01,-RA,,0.07,WeatherDisplay:10.37,2013-02-13 23:20:00,
2013-02-13 18:26:00,43.4,41.5,29.66,WNW,284,0.3,3.5,93,0.01,-RA,,0.07,WeatherDisplay:10.37,2013-02-13 23:26:00,
2013-02-13 18:31:00,43.5,41.0,29.67,West,278,1.4,3.0,91,0.01,-RA,,0.07,WeatherDisplay:10.37,2013-02-13 23:31:00,
2013-02-13 18:36:00,43.7,40.4,29.67,SSE,162,1.3,4.0,88,0.01,-RA,,0.07,WeatherDisplay:10.37,2013-02-13 23:36:00,
2013-02-13 18:41:00,43.7,39.8,29.68,SW,235,1.6,6.9,86,0.01,-RA,,0.07,WeatherDisplay:10.37,2013-02-13 23:41:00,
2013-02-13 18:47:00,43.7,39.5,29.68,West,271,0.1,2.3,85,0.01,-RA,,0.07,WeatherDisplay:10.37,2013-02-13 23:47:00,
2013-02-13 18:52:00,43.6,39.7,29.69,East,80,0.0,1.1,86,0.01,-RA,,0.07,WeatherDisplay:10.37,2013-02-13 23:52:00,
2013-02-13 18:57:00,43.4,38.9,29.70,NNW,345,1.5,4.0,84,0.01,-RA,,0.07,WeatherDisplay:10.37,2013-02-13 23:57:00,
2013-02-13 19:02:00,43.0,37.9,29.71,NNW,340,1.7,3.5,82,0.01,BKN,,0.07,WeatherDisplay:10.37,2013-02-14 00:02:00,
2013-02-13 19:07:00,42.6,36.5,29.71,NE,37,2.2,5.0,79,0.01,CLR,,0.07,WeatherDisplay:10.37,2013-02-14 00:07:00,
2013-02-13 19:12:00,42.2,35.5,29.72,WSW,244,2.7,6.0,77,0.00,CLR,,0.07,WeatherDisplay:10.37,2013-02-14 00:12:00,
2013-02-13 19:17:00,41.9,34.9,29.72,ESE,108,0.7,9.2,76,0.00,BKN,,0.07,WeatherDisplay:10.37,2013-02-14 00:17:00,
2013-02-13 19:22:00,41.7,34.7,29.73,NNW,328,0.3,2.3,76,0.00,BKN,,0.07,WeatherDisplay:10.37,2013-02-14 00:22:00,
2013-02-13 19:27:00,41.6,34.6,29.73,NE,41,0.4,2.3,76,0.00,BKN,,0.07,WeatherDisplay:10.37,2013-02-14 00:27:00,
2013-02-13 19:32:00,41.5,34.8,29.73,NW,318,0.0,1.1,77,0.00,BKN,,0.07,WeatherDisplay:10.37,2013-02-14 00:32:00,
2013-02-13 19:37:00,41.4,35.1,29.74,North,349,0.2,1.1,78,0.00,BKN,,0.07,WeatherDisplay:10.37,2013-02-14 00:37:00,
2013-02-13 19:42:00,41.3,34.3,29.74,NNW,344,0.5,4.6,76,0.00,BKN,,0.07,WeatherDisplay:10.37,2013-02-14 00:42:00,
2013-02-13 19:47:00,41.3,34.3,29.74,ENE,63,0.5,3.5,76,0.00,BKN,,0.07,WeatherDisplay:10.37,2013-02-14 00:47:00,
2013-02-13 19:52:00,41.3,34.6,29.75,WNW,301,0.3,2.3,77,0.00,BKN,,0.07,WeatherDisplay:10.37,2013-02-14 00:52:00,
2013-02-13 19:57:00,41.2,33.9,29.75,WNW,296,0.1,3.5,75,0.00,BKN,,0.07,WeatherDisplay:10.37,2013-02-14 00:57:00,
2013-02-13 20:02:00,41.0,33.7,29.75,WNW,298,1.1,3.5,75,0.00,BKN,,0.07,WeatherDisplay:10.37,2013-02-14 01:02:00,
2013-02-13 20:07:00,40.9,33.6,29.75,SW,215,0.8,3.5,75,0.00,BKN,,0.07,WeatherDisplay:10.37,2013-02-14 01:07:00,
2013-02-13 20:12:00,40.7,33.1,29.75,NW,307,3.7,6.0,74,0.00,BKN,,0.07,WeatherDisplay:10.37,2013-02-14 01:12:00,
2013-02-13 20:17:00,40.6,33.0,29.75,NW,311,2.9,5.0,74,0.00,BKN,,0.07,WeatherDisplay:10.37,2013-02-14 01:17:00,
2013-02-13 20:22:00,40.5,32.5,29.76,North,349,1.8,3.5,73,0.00,BKN,,0.07,WeatherDisplay:10.37,2013-02-14 01:22:00,
2013-02-13 20:28:00,40.3,32.7,29.77,NNW,335,2.1,4.0,74,0.00,BKN,,0.07,WeatherDisplay:10.37,2013-02-14 01:28:00,
2013-02-13 20:33:00,40.3,32.3,29.77,NNW,333,1.5,3.5,73,0.00,BKN,,0.07,WeatherDisplay:10.37,2013-02-14 01:33:00,
2013-02-13 20:38:00,40.3,32.3,29.77,NNE,27,1.0,1.1,73,0.00,BKN,,0.07,WeatherDisplay:10.37,2013-02-14 01:38:00,
2013-02-13 20:43:00,40.4,32.4,29.77,NW,304,0.8,2.3,73,0.00,BKN,,0.07,WeatherDisplay:10.37,2013-02-14 01:43:00,
2013-02-13 20:48:00,40.3,32.3,29.77,North,355,0.1,2.3,73,0.00,BKN,,0.07,WeatherDisplay:10.37,2013-02-14 01:48:00,
2013-02-13 20:53:00,40.2,31.9,29.77,North,1,0.0,2.3,72,0.00,BKN,,0.07,WeatherDisplay:10.37,2013-02-14 01:53:00,
2013-02-13 20:58:00,39.9,32.3,29.77,WNW,285,3.6,12.0,74,0.00,BKN,,0.07,WeatherDisplay:10.37,2013-02-14 01:58:00,
2013-02-13 21:03:00,39.9,31.9,29.77,NW,304,3.3,7.0,73,0.00,BKN,,0.07,WeatherDisplay:10.37,2013-02-14 02:03:00,
2013-02-13 21:09:00,40.1,31.8,29.77,WSW,255,0.0,0.0,72,0.00,BKN,,0.07,WeatherDisplay:10.37,2013-02-14 02:09:00,
2013-02-13 21:14:00,39.9,31.9,29.78,WSW,256,2.0,0.0,73,0.00,BKN,,0.07,WeatherDisplay:10.37,2013-02-14 02:14:00,
2013-02-13 21:19:00,40.1,31.8,29.78,NW,305,0.9,4.6,72,0.00,BKN,,0.07,WeatherDisplay:10.37,2013-02-14 02:19:00,
2013-02-13 21:24:00,40.3,31.6,29.78,NW,318,0.8,6.9,71,0.00,BKN,,0.07,WeatherDisplay:10.37,2013-02-14 02:24:00,
2013-02-13 21:29:00,40.2,31.9,29.79,West,274,1.1,8.0,72,0.00,BKN,,0.07,WeatherDisplay:10.37,2013-02-14 02:29:00,
2013-02-13 21:34:00,40.1,31.4,29.79,WNW,285,1.9,3.5,71,0.00,BKN,,0.07,WeatherDisplay:10.37,2013-02-14 02:34:00,
2013-02-13 21:39:00,39.9,31.3,29.78,WNW,286,3.5,10.4,71,0.00,BKN,,0.07,WeatherDisplay:10.37,2013-02-14 02:39:00,
2013-02-13 21:44:00,40.0,31.4,29.78,NW,311,2.0,6.9,71,0.00,BKN,,0.07,WeatherDisplay:10.37,2013-02-14 02:44:00,
2013-02-13 21:49:00,39.7,31.8,29.78,WSW,239,0.9,4.6,73,0.00,BKN,,0.07,WeatherDisplay:10.37,2013-02-14 02:49:00,
2013-02-13 21:54:00,39.6,31.3,29.78,NW,309,1.0,5.8,72,0.00,BKN,,0.07,WeatherDisplay:10.37,2013-02-14 02:54:00,
2013-02-13 21:59:00,39.6,31.7,29.78,NE,37,1.4,5.8,73,0.00,BKN,,0.07,WeatherDisplay:10.37,2013-02-14 02:59:00,
2013-02-13 22:04:00,39.6,31.7,29.78,NNW,343,0.8,4.0,73,0.00,SCT,,0.07,WeatherDisplay:10.37,2013-02-14 03:04:00,
2013-02-13 22:09:00,39.7,31.4,29.79,West,260,2.3,8.1,72,0.00,SCT,,0.07,WeatherDisplay:10.37,2013-02-14 03:09:00,
2013-02-13 22:14:00,39.7,31.4,29.79,North,350,2.2,5.8,72,0.00,SCT,,0.07,WeatherDisplay:10.37,2013-02-14 03:14:00,
2013-02-13 22:19:00,39.9,31.6,29.79,NNW,347,0.7,3.5,72,0.00,SCT,,0.07,WeatherDisplay:10.37,2013-02-14 03:19:00,
2013-02-13 22:24:00,40.0,31.7,29.80,NW,321,3.2,5.0,72,0.00,SCT,,0.07,WeatherDisplay:10.37,2013-02-14 03:24:00,
2013-02-13 22:30:00,40.1,31.4,29.79,West,264,1.3,3.5,71,0.00,SCT,,0.07,WeatherDisplay:10.37,2013-02-14 03:30:00,
2013-02-13 22:35:00,40.0,31.7,29.80,WNW,285,0.3,2.3,72,0.00,SCT,,0.07,WeatherDisplay:10.37,2013-02-14 03:35:00,
2013-02-13 22:41:00,39.9,31.6,29.80,SSW,195,1.2,3.5,72,0.00,SCT,,0.07,WeatherDisplay:10.37,2013-02-14 03:41:00,
2013-02-13 22:47:00,39.7,31.4,29.80,SSW,210,1.2,3.5,72,0.00,SCT,,0.07,WeatherDisplay:10.37,2013-02-14 03:47:00,
2013-02-13 22:52:00,39.6,31.3,29.81,NNW,332,1.5,5.0,72,0.00,SCT,,0.07,WeatherDisplay:10.37,2013-02-14 03:52:00,
2013-02-13 22:57:00,39.6,31.3,29.81,WNW,302,0.5,5.8,72,0.00,SCT,,0.07,WeatherDisplay:10.37,2013-02-14 03:57:00,
2013-02-13 23:02:00,39.5,31.6,29.81,East,95,1.4,4.0,73,0.00,BKN,,0.07,WeatherDisplay:10.37,2013-02-14 04:02:00,
2013-02-13 23:07:00,39.5,31.6,29.81,North,353,2.2,4.0,73,0.00,BKN,,0.07,WeatherDisplay:10.37,2013-02-14 04:07:00,
2013-02-13 23:12:00,39.6,31.7,29.81,NNW,345,1.5,3.5,73,0.00,BKN,,0.07,WeatherDisplay:10.37,2013-02-14 04:12:00,
2013-02-13 23:17:00,39.7,31.4,29.81,West,276,3.8,6.0,72,0.00,BKN,,0.07,WeatherDisplay:10.37,2013-02-14 04:17:00,
2013-02-13 23:22:00,39.8,31.8,29.81,NW,311,2.4,4.0,73,0.00,BKN,,0.07,WeatherDisplay:10.37,2013-02-14 04:22:00,
2013-02-13 23:27:00,39.6,31.7,29.81,WSW,258,0.8,4.6,73,0.00,BKN,,0.07,WeatherDisplay:10.37,2013-02-14 04:27:00,
2013-02-13 23:32:00,39.6,31.7,29.81,West,281,4.4,9.2,73,0.00,BKN,,0.07,WeatherDisplay:10.37,2013-02-14 04:32:00,
2013-02-13 23:37:00,39.5,31.9,29.81,WNW,293,1.8,3.5,74,0.00,BKN,,0.07,WeatherDisplay:10.37,2013-02-14 04:37:00,
2013-02-13 23:42:00,39.4,31.8,29.81,West,266,3.9,7.0,74,0.00,BKN,,0.07,WeatherDisplay:10.37,2013-02-14 04:42:00,
2013-02-13 23:47:00,39.4,31.8,29.81,WNW,283,2.7,5.0,74,0.00,BKN,,0.07,WeatherDisplay:10.37,2013-02-14 04:47:00,
2013-02-13 23:52:00,39.3,31.7,29.82,WNW,302,2.2,5.0,74,0.00,BKN,,0.07,WeatherDisplay:10.37,2013-02-14 04:52:00,
2013-02-13 23:57:00,39.3,31.7,29.82,West,263,3.2,9.2,74,0.00,BKN,,0.07,WeatherDisplay:10.37,2013-02-14 04:57:00,